Regional Weather Roundup
Issued by NWS Green Bay, WI

Home | Current Version | Previous Version | Graphics & Text | Print | Product List | Glossary Off
Versions: 1 2 3 4 5 6 7 8 9 10 11 12 13 14 15 16 17 18 19 20 21 22 23 24 25 26 27 28 29 30 31 32 33 34 35 36 37 38 39 40 41 42 43 44 45 46 47 48 49 50

000
ASUS43 KGRB 280200
RWRGRB

NORTH-CENTRAL AND NORTHEAST WISCONSIN REGIONAL WEATHER ROUNDUP
NATIONAL WEATHER SERVICE GREEN BAY WI
800 PM CST MON FEB 27 2017

WIZ005-009-010>012-018-019-280300-
NORTH CENTRAL WISCONSIN

CITY           SKY/WX    TMP DP  RH WIND       PRES   REMARKS
IRONWOOD       MOCLDY    35  17  47 S7        29.93S
MANITOWISH WTR NOT AVBL
ARBOR VITAE    NOT AVBL
EAGLE RIVER    NOT AVBL
LAND O LAKES   NOT AVBL
RHINELANDER    CLEAR     33  17  51 SE6       29.97S
PHILLIPS       NOT AVBL
ANTIGO         NOT AVBL
TOMAHAWK       NOT AVBL
MERRILL        NOT AVBL
$$

WIZ013-073-280300-
NORTHEAST WISCONSIN

CITY           SKY/WX    TMP DP  RH WIND       PRES   REMARKS
IRON MOUNTAIN  CLEAR     32  20  61 S6        30.01R
MARINETTE      CLOUDY    34  29  82 SW5       30.07R
$$

WIZ017-030-035>037-045-280300-
CENTRAL WISCONSIN

CITY           SKY/WX    TMP DP  RH WIND       PRES   REMARKS
MEDFORD        NOT AVBL
WAUSAU         PTCLDY    34  24  67 SE6       29.98S
MOSINEE        NOT AVBL
MARSHFIELD     MOCLDY    35  26  69 SE5       29.96F
WISC RAPIDS    CLEAR     34  28  79 SE7       30.00F
STEVENS POINT  NOT AVBL
WAUPACA        NOT AVBL
SHAWANO        MOCLDY    35  29  79 CALM      30.04S
CLINTONVILLE   NOT AVBL
WAUTOMA        PTCLDY    30  28  92 CALM      30.02F
$$

WIZ038-039-048-051-280300-
FOX VALLEY

CITY           SKY/WX    TMP DP  RH WIND       PRES   REMARKS
NWS GREEN BAY  PTCLDY    33  31  92 CALM      30.05S
APPLETON       PTCLDY    36  28  75 E3        30.02S
OSHKOSH        PTCLDY    34  30  85 S3        30.02F
FOND DU LAC    CLEAR     37  29  72 SE6       30.03S
$$

WIZ022-050-052-280300-
EAST CENTRAL WISCONSIN

CITY           SKY/WX    TMP DP  RH WIND       PRES   REMARKS
EPHRAIM        NOT AVBL
WASHINGTON ISL NOT AVBL
STURGEON BAY   PTCLDY    34  32  92 S7        30.07S
MANITOWOC      NOT AVBL
SHEBOYGAN      CLOUDY    33  30  88 CALM      30.05F FOG
$$

LMZ563-521-522-541>543-280300-
LAKESHORE

STATION/POSITION TIME  TEMP    WIND        PRES    VSBY  WAVE
                       AIR SEA DIR/SP/G                  HT/PER
                 (UTC) (F)     (DEG/KT/KT) (MB)    (MI)  (FT/S)
SHEBOYGAN LKSHOR 0100   37     180/  8/  9 1018.7R
KEWAUNEE LKSHORE 0130   36     160/  6/  7 1017.7F
NORTHPORT PIER   0140   35     160/  4/  8 1018.3R
SISTER BAY LKSHO 0105   35     160/ 10/ 12   N/A
CHAMBERS ISLAND  0140   34     150/  5/  8 1017.9R
MENOMINEE LKSHOR 0130   33     180/  7/  9 1017.3R
$$



USA.gov is the U.S. government's official web portal to all federal, state and local government web resources and services.